Location: Newark
(3.0500°N, 36.0167°E)
Time: 00:10:26
(UTC+00:00)

Transit 2A Rocket - Visible Passes

Search period start: 22 August 2019 00:00
Search period end: 01 September 2019 00:00
Orbit: 590 x 913 km, 66.7° (Epoch: 21 August)

Date Brightness Start Highest point End Pass type
(mag) Time Alt. Az. Time Alt. Az. Time Alt. Az.
22 Aug 7.6 16:05:47 10° SW 16:11:00 30° WNW 16:16:05 10° N visible
23 Aug 5.0 02:52:19 10° N 02:56:32 62° ENE 03:00:50 10° SSE visible
24 Aug 6.8 02:10:34 10° NNE 02:14:06 25° ENE 02:17:41 10° SE visible
25 Aug 7.9 01:30:46 10° ENE 01:31:38 10° ENE 01:32:28 10° E visible
25 Aug 5.4 03:10:13 10° NW 03:13:52 28° WSW 03:17:39 10° S visible
26 Aug 4.3 02:27:12 10° NNW 02:31:25 70° WSW 02:35:48 10° SSE visible
27 Aug 5.5 01:44:55 10° N 01:49:00 45° ENE 01:53:10 10° SE visible
28 Aug 7.3 01:08:21 15° E 01:08:21 15° E 01:09:38 10° ESE visible
28 Aug 6.0 02:48:30 16° WSW 02:48:48 16° WSW 02:51:33 10° SSW visible
29 Aug 6.7 02:09:50 13° S 02:09:50 13° S 02:10:26 10° S visible
